Ketchikan, AK

7:41 PM AKDT on October 17, 2018 (GMT -0800)
Ketchikan International

Weather History for PAKT - February, 2018

Change the Weather History Date:

Monday, February 26, 2018

  Actual Average Record
Temperature  
Mean Temperature 37 °F -  
Max Temperature 41 °F 44 °F 58 °F (1992)
Min Temperature 33 °F 31 °F 14 °F (1972)
Degree Days  
Heating Degree Days 28    
Moisture  
Dew Point 33 °F    
Average Humidity 87    
Maximum Humidity 93    
Minimum Humidity 65    
Precipitation  
Precipitation 0.07 in - - ()
Sea Level Pressure  
Sea Level Pressure 29.81 in    
Wind  
Wind Speed 5 mph (SSE)    
Max Wind Speed 22 mph    
Max Gust Speed 29 mph    
Visibility 8 miles    
Events Rain , Snow    
Averages and records for this station are not official NWS values.
T = Trace of Precipitation, MM = Missing Value Source: NWS Daily Summary

Daily Weather History Graph

Daily Weather History Graph

Search for Another Location

Airport or City:

Astronomy

Feb. 26, 2018 Rise Set
Actual Time 6:44 AM AKST 5:16 PM AKST
Civil Twilight 6:07 AM AKST 5:53 PM AKST
Nautical Twilight 5:24 AM AKST 6:35 PM AKST
Astronomical Twilight 4:42 AM AKST 7:18 PM AKST
Moon 1:11 PM AKST (2/26) 4:54 AM AKST (2/26)
Length of Visible Light 11h 46m
Length of Day
10h 32m
Waxing Gibbous, 87% of the Moon is Illuminated
Feb 26
Waxing Gibbous
Mar 1
Full
Mar 9
Last Quarter
Mar 17
New
Mar 24
First Quarter

Hourly Weather History & Observations

Time (AKST) Temp. Windchill Dew Point Humidity Pressure Visibility Wind Dir Wind Speed Gust Speed Precip Events Conditions
12:49 AM 33.8 °F - 32.0 °F 93% 29.89 in 10.0 mi Calm Calm - N/A   Mostly Cloudy
12:53 AM 33.1 °F - 30.9 °F 92% 29.89 in 10.0 mi Calm Calm - N/A   Mostly Cloudy
1:53 AM 34.0 °F - 30.9 °F 89% 29.91 in 10.0 mi Calm Calm - N/A   Overcast
2:53 AM 35.1 °F 31.0 °F 32.0 °F 89% 29.91 in 10.0 mi ESE 4.6 mph - N/A   Overcast
3:53 AM 35.1 °F 29.3 °F 32.0 °F 89% 29.93 in 10.0 mi SSE 6.9 mph - N/A   Overcast
4:53 AM 35.1 °F 31.0 °F 32.0 °F 89% 29.93 in 10.0 mi SSE 4.6 mph - N/A   Overcast
5:24 AM 35.1 °F 30.1 °F 32.0 °F 89% 29.92 in 10.0 mi South 5.8 mph - N/A   Overcast
5:53 AM 35.1 °F 31.0 °F 32.0 °F 89% 29.92 in 10.0 mi South 4.6 mph - N/A   Overcast
6:07 AM 35.6 °F 31.7 °F 32.0 °F 87% 29.91 in 10.0 mi South 4.6 mph - N/A   Overcast
6:53 AM 35.6 °F 30.7 °F 33.8 °F 93% 29.91 in 10.0 mi South 5.8 mph - N/A   Overcast
7:53 AM 35.6 °F 29.9 °F 33.8 °F 93% 29.90 in 10.0 mi SSE 6.9 mph - N/A   Overcast
8:53 AM 35.6 °F 29.9 °F 32.0 °F 87% 29.89 in 6.0 mi SE 6.9 mph - N/A   Overcast
9:53 AM 35.6 °F 28.0 °F 33.8 °F 93% 29.87 in 4.0 mi SE 10.4 mph - N/A Rain Light Rain
10:53 AM 35.6 °F 26.6 °F 33.8 °F 93% 29.85 in 5.0 mi SE 13.8 mph - N/A Rain Light Rain
11:53 AM 35.6 °F 26.2 °F 33.8 °F 93% 29.82 in 4.0 mi SE 15.0 mph - N/A Rain Light Rain
12:53 PM 35.6 °F 24.2 °F 33.8 °F 93% 29.76 in 5.0 mi SE 21.9 mph 28.8 mph N/A Rain Light Rain
1:53 PM 37.4 °F 28.5 °F 33.8 °F 87% 29.74 in 9.0 mi SE 15.0 mph - N/A Rain Light Rain
2:53 PM 37.0 °F 27.4 °F 35.1 °F 93% 29.70 in 4.0 mi SE 17.3 mph - 0.02 in Rain Light Rain
3:53 PM 37.9 °F 29.6 °F 35.1 °F 89% 29.67 in 8.0 mi SE 13.8 mph - 0.01 in   Overcast
4:53 PM 37.9 °F - 36.0 °F 93% 29.67 in 7.0 mi Calm Calm - 0.02 in Rain Light Rain
5:53 PM 39.0 °F 35.7 °F 32.0 °F 76% 29.66 in 10.0 mi Variable 4.6 mph - 0.01 in   Scattered Clouds
6:53 PM 41.0 °F 35.2 °F 30.0 °F 65% 29.68 in 10.0 mi West 9.2 mph - N/A   Overcast
7:53 PM 39.0 °F 31.8 °F 30.9 °F 73% 29.70 in 9.0 mi West 11.5 mph 23.0 mph 0.00 in   Unknown
8:53 PM 37.9 °F 34.4 °F 30.9 °F 76% 29.71 in 9.0 mi West 4.6 mph - 0.00 in   Overcast
9:53 PM 37.9 °F - 30.9 °F 76% 29.72 in 10.0 mi Calm Calm - N/A   Overcast
10:51 PM 35.6 °F 32.8 °F 32.0 °F 87% 29.73 in 6.0 mi WNW 3.5 mph - 0.00 in Snow Light Snow
10:53 PM 36.0 °F 33.3 °F 32.0 °F 86% 29.73 in 6.0 mi WNW 3.5 mph - 0.01 in Snow Light Snow
11:14 PM 35.1 °F - 33.1 °F 92% 29.73 in 10.0 mi Calm Calm - 0.00 in   Overcast
11:53 PM 35.1 °F 31.0 °F 32.0 °F 89% 29.74 in 10.0 mi SSE 4.6 mph - 0.00 in   Overcast